Back to catalog

BREEZE-M DEB

TANK

AliveHEO
NORAD 38654·DEBRIS·🇷🇺 Russia

Launched Jul 9, 2012 from Baikonur Cosmodrome

Loading…

Next Passes (next 24 hours)

TLE

FreshSource: Space-Track

Epoch: Sep 14, 2026, 10:27 UTC

1 38654U 12036C   26257.43576496  .00001838  00000-0  42840-3 0  9995
2 38654  49.6574  26.6435 5029787 267.9110  36.3616  5.54741564276723

Track BREEZE-M DEB in real time with AllMySat

Download on the App Store